Regional Weather Roundup
Issued by NWS

Home | Current Version | Previous Version | Graphics & Text | Print | Product List | Glossary Off
Versions: 1 2 3 4 5 6 7 8 9 10 11 12 13 14 15 16 17 18 19 20 21 22 23 24 25 26 27 28 29 30 31 32 33 34 35 36 37 38 39 40 41 42 43 44 45 46 47 48 49 50

000
ASUS43 KFSD 060302
RWRSD

WEATHER ROUNDUP FOR SOUTH DAKOTA
NATIONAL WEATHER SERVICE SIOUX FALLS SD
1000 PM CDT THU MAY 05 2016

NOTE: "FAIR" INDICATES FEW OR NO CLOUDS BELOW 12,000 FEET WITH NO
SIGNIFICANT WEATHER AND/OR OBSTRUCTIONS TO VISIBILITY.


SDZ001>005-009-010-012>017-060400-
NORTHWEST AND NORTH CENTRAL SOUTH DAKOTA

CITY           SKY/WX    TMP DP  RH WIND       PRES   REMARKS
BUFFALO          N/A     69  50  50 S8        29.79R
FAITH            N/A     75  44  33 E5        29.84R
MOBRIDGE       CLOUDY    65  52  62 SE8       29.79R
$$

SDZ012>016-024>037-041>051-057-063-072>074-060400-
SOUTHWEST AND SOUTH CENTRAL SOUTH DAKOTA

CITY           SKY/WX    TMP DP  RH WIND       PRES   REMARKS
RAPID CTY ARPT PTCLDY    63  43  48 E3        29.87R
PIERRE         CLOUDY    70  51  51 SE15      29.79S
CUSTER         CLOUDY    62  33  33 CALM      30.02R
ELLSWORTH AFB  CLEAR     69  44  40 SW6       29.86R
PHILIP         MOCLDY    64  56  75 W6        29.81R
PINE RIDGE     CLEAR     64  43  46 CALM      29.89R
WINNER         LGT RAIN  74  47  38 S22       29.85R
$$

SDZ004>011-016>023-039-040-060400-
NORTHEAST SOUTH DAKOTA

CITY           SKY/WX    TMP DP  RH WIND       PRES   REMARKS
ABERDEEN       CLEAR     66  41  40 S10       29.83R
WATERTOWN      CLEAR     65  43  44 S7        29.89S
BROOKINGS      CLEAR     65  46  50 S10       29.91S
SISSETON         N/A     69  42  37 SW10      29.83S
$$

SDZ017-020-022-023-036>040-048>070-060400-
SOUTHEAST SOUTH DAKOTA

CITY           SKY/WX    TMP DP  RH WIND       PRES   REMARKS
SIOUX FALLS    CLEAR     67  44  43 S12       29.93R
HURON          CLEAR     70  45  40 S13       29.85S
MITCHELL       CLEAR     68  47  46 S10       29.88S
YANKTON        CLEAR     70  43  37 S12       29.92S
$$

ABBREVIATIONS USED IN REMARKS
   TC - TEMPERATURE IN CELSIUS
  WCI - WIND CHILL INDEX
   HX - HEAT INDEX
  VSB - VISIBILITY




USA.gov is the U.S. government's official web portal to all federal, state and local government web resources and services.